Weather in Asan

South Korea     36°47′09″N   127°00′21″E
temp.,
°C
wind,
m/s
gust,
m/s
humid.,
%
clouds,
%
prec.,
mm/h
press.,
hPa
HPBL,
m
15 april, thu
thu1500:00+4s227614 0.0 102125
03:00+4s227452 0.0 102014
06:00+3s117797 0.0 102110
09:00+9ese1156100 0.0 1020347
12:00+14nnw2238100 0.0 10201027
15:00+16se1229100 0.0 10171374
18:00+15sw23380 0.0 1017190
21:00+8w1164100 0.0 101810
16 april, fri
fri1600:00+8s2261100 0.0 101730
03:00+7sse2267100 0.0 101651
06:00+8sse41467100 0.1 1014711
09:00+10ssw51269100 0.2 1015942
12:00+12sw6107970 0.0 1016936
15:00+15wsw6939100 0.0 10151392
18:00+12wsw3740100 0.0 1016508
21:00+8s2252100 0.0 101818
17 april, sat
sat1700:00+8s2265100 0.0 101725
03:00+6ssw11710 0.0 101610
06:00+5sse22792 0.0 101427
09:00+8nw5875100 0.6 1016903
12:00+13wnw49404 0.9 10152094
15:00+13w813294 0.9 10142586
18:00+8wnw8135712 0.0 10151363
21:00+6w6118260 0.0 1016995
18 april, sun
sun1800:00+6w612806 0.0 1017876
03:00+6w513770 0.0 1016693
06:00+6wnw413750 0.0 1016514
09:00+11wnw712480 0.0 10171430
12:00+14nw711340 0.0 10171539
15:00+15wnw69310 0.0 10151394
18:00+12w59370 0.0 1015737
21:00+7sw22520 0.0 101724
19 april, mon
mon1900:00+5ssw22670 0.0 101835
03:00+5ssw22730 0.0 101826
06:00+5s22710 0.0 101816
09:00+13ssw23420 0.0 1018425
12:00+19w46280 0.0 10171094
15:00+19wsw57300 0.0 1016967
18:00+15sw354895 0.0 1016390
21:00+10sw227132 0.0 101828